GFSSW_925_rhum_009.txt.gz
RH
100 100 98 100 87 47 35 33 32 35 27 26 23 22 21 20 17 16 14 14 14 13 14 15 15 16 15 12 8 11 17 19 13 12 11 12 11 12 11 28 21 34 44 38 55
69 89 94 95 50 39 34 37 39 31 26 22 22 21 18 20 22 16 16 16 17 17 17 19 21 20 12 10 13 16 20 15 12 11 12 13 12 11 11 24 40 43 45 49 57
63 72 73 47 38 36 34 31 29 26 24 22 22 19 17 25 18 14 16 16 15 14 16 18 21 19 12 12 13 14 20 14 15 14 13 16 15 13 14 19 38 43 48 64 63
56 45 40 38 35 34 31 32 27 26 26 24 20 18 19 26 12 14 16 15 15 13 12 15 19 18 19 20 16 16 15 16 14 14 15 16 14 14 14 13 17 42 46 65 66
52 45 37 35 32 30 30 28 29 29 26 21 20 18 19 22 19 16 15 15 14 15 14 17 21 20 23 19 16 15 14 15 14 14 14 15 15 14 15 13 16 41 50 63 65
47 40 36 33 31 30 31 31 30 27 22 20 20 20 26 22 15 15 15 15 15 15 15 14 16 18 20 21 19 18 18 18 17 16 17 16 17 16 16 14 18 37 54 61 58
42 39 35 34 33 31 30 31 30 25 23 22 20 21 34 18 15 16 15 15 15 16 17 14 14 17 19 22 20 18 21 22 19 18 18 17 15 16 14 15 19 31 39 41 41
36 34 34 34 34 34 34 32 28 25 22 20 21 25 26 15 16 15 14 15 13 14 16 16 14 16 19 20 25 22 22 25 18 20 15 13 20 14 13 16 18 22 29 30 29
34 34 34 33 33 32 29 27 24 22 20 19 25 32 25 15 15 15 12 12 12 13 13 16 16 22 23 22 27 28 26 22 21 21 21 15 19 15 18 19 19 22 25 28 25
33 33 33 31 29 26 25 23 22 20 21 25 30 27 19 19 15 12 12 12 13 18 22 22 29 26 28 30 33 27 24 26 25 23 31 29 26 26 25 20 21 23 22 19 20
33 32 30 27 28 28 28 39 42 28 28 20 18 20 16 14 15 13 13 14 18 20 24 24 29 26 21 21 22 21 26 32 28 24 33 34 39 33 29 23 24 27 29 32 32
29 29 27 26 33 30 32 50 46 41 28 22 16 15 14 15 18 16 13 18 20 23 19 30 26 19 22 24 23 25 29 32 33 29 35 36 36 24 22 21 26 32 34 32 33
26 26 24 22 27 32 36 51 49 47 35 22 16 16 16 14 18 18 16 19 22 22 23 30 21 18 22 28 29 28 30 31 35 37 33 37 34 24 22 25 25 25 28 29 34
24 25 24 22 32 42 41 41 45 54 48 29 22 19 15 15 21 16 16 19 22 21 21 23 17 22 27 26 28 34 25 31 38 42 47 37 44 31 22 22 24 30 30 27 28
23 24 24 24 39 42 46 36 47 51 62 25 18 15 16 17 16 22 23 18 25 28 23 24 19 26 28 27 28 36 37 41 40 46 45 41 44 37 29 22 25 31 30 30 28
33 27 27 33 36 43 38 37 52 78 62 25 19 20 22 23 23 26 32 30 30 35 34 34 20 23 25 27 31 34 42 48 50 52 61 43 44 42 36 32 32 31 30 31 31
40 35 34 41 40 36 36 50 73 68 33 27 25 22 26 26 31 33 40 46 51 35 54 48 39 34 29 36 37 44 59 74 63 75 71 49 45 41 30 30 30 30 30 33 31
45 37 39 46 43 38 46 66 52 47 34 26 25 24 28 27 34 41 40 51 45 49 66 67 55 44 37 34 38 42 54 80 67 85 78 54 50 39 27 27 29 28 28 31 35
46 43 38 47 40 51 62 76 59 48 31 30 30 33 39 36 32 38 47 50 48 47 53 78 57 44 38 40 36 43 63 49 74 94 88 72 53 38 37 45 33 32 39 48 54
49 46 46 41 44 48 79 54 34 29 31 36 36 39 40 46 42 43 46 44 44 52 44 56 73 50 47 39 41 41 42 67 85 85 90 77 73 58 44 51 43 51 50 50 52
57 48 42 49 51 67 71 54 27 26 29 38 41 45 46 45 47 50 50 43 40 42 48 49 61 55 46 50 53 57 68 62 66 83 95 98 83 56 52 53 49 54 50 47 48
55 53 49 45 63 85 52 32 37 40 40 40 43 43 46 46 55 51 51 44 37 42 49 53 69 80 53 49 49 46 62 64 87 81 89 94 74 42 42 50 54 55 56 56 48
73 69 43 40 74 81 43 44 45 39 44 41 41 41 48 52 55 49 48 44 39 43 47 48 71 79 53 46 46 57 56 62 74 84 87 93 76 45 42 47 54 60 60 61 57
64 73 76 77 71 48 45 44 44 40 41 40 44 45 48 56 53 51 59 56 57 45 63 54 67 64 79 53 61 69 66 62 68 92 83 78 65 54 54 59 64 66 66 65 64
75 64 67 76 73 55 52 46 47 46 38 47 54 57 48 60 57 69 63 61 54 59 53 60 71 68 70 66 67 68 72 70 79 77 90 74 74 60 61 70 69 65 67 69 65
73 76 76 79 63 44 66 44 50 46 44 48 59 55 54 61 56 63 62 62 63 57 62 72 83 77 81 75 79 84 76 78 77 80 80 77 71 51 67 72 76 75 72 74 74
69 66 68 84 67 69 71 45 46 48 50 45 53 57 58 60 56 54 60 59 58 64 72 73 90 98 83 93 96 78 75 75 68 58 59 75 63 65 76 78 83 76 76 79 72

GFSSW_925_rhum_015.txt.gz
RH
96 97 100 91 93 88 45 32 27 26 26 25 24 22 20 20 17 17 18 18 19 18 19 19 18 18 13 11 11 12 12 13 11 12 12 12 11 12 17 36 28 33 49 46 67
71 98 96 88 98 73 38 31 27 26 25 24 23 21 21 22 24 17 17 17 15 15 17 17 18 15 13 13 15 13 15 15 12 11 13 14 11 10 16 28 36 41 47 70 78
60 68 71 93 85 43 35 28 26 26 24 23 22 21 24 24 20 16 17 16 14 14 16 15 14 15 18 17 16 17 15 16 15 12 13 16 15 13 19 22 25 22 47 67 76
59 55 65 59 42 38 31 27 26 24 23 22 22 24 23 21 26 16 16 15 16 13 15 17 19 20 22 18 17 17 16 15 15 16 16 15 15 15 16 12 17 28 50 64 66
56 53 47 41 37 32 28 26 24 25 21 22 24 25 22 23 20 17 16 15 15 15 15 18 21 22 22 20 19 17 16 17 15 16 15 16 16 15 15 14 14 34 58 59 60
50 45 39 36 32 28 27 26 27 22 21 24 24 26 20 26 17 14 15 13 13 16 16 16 19 21 25 22 22 21 20 20 19 18 18 18 18 17 14 14 18 35 47 55 59
45 38 34 32 30 31 31 29 24 21 23 24 26 24 22 20 16 13 11 12 12 15 19 16 17 18 23 24 25 21 18 19 20 20 17 18 17 15 14 13 15 23 39 54 59
39 37 36 35 33 33 31 25 22 23 22 24 25 23 22 17 15 13 11 12 14 16 17 18 16 24 22 22 21 20 20 21 19 22 20 16 21 16 15 17 16 20 22 44 53
37 38 37 37 35 30 27 25 24 24 24 22 25 23 22 14 15 15 14 14 14 17 17 16 19 25 22 20 21 23 19 23 22 26 26 24 25 20 22 24 23 21 19 32 42
35 36 36 35 32 28 26 25 23 24 24 19 22 22 18 18 16 15 14 16 18 17 20 24 24 23 25 21 22 27 24 27 27 24 28 30 28 26 22 24 25 22 22 29 32
35 36 35 37 32 30 31 34 26 28 22 20 20 21 17 15 16 17 16 16 18 23 26 29 24 26 26 25 24 24 26 30 28 28 31 34 33 24 24 25 25 25 26 26 26
33 32 39 39 42 39 38 50 36 33 24 21 18 17 16 17 21 21 17 20 24 25 24 26 28 23 26 26 25 26 29 27 29 30 34 34 28 26 26 30 32 31 30 30 29
28 28 33 39 35 40 40 53 52 45 29 21 20 19 18 17 25 26 22 24 24 28 30 31 23 25 24 32 34 34 30 32 33 34 34 33 27 28 23 25 27 28 29 28 28
26 26 27 36 33 37 44 46 52 38 43 30 23 18 18 18 23 26 27 22 29 26 28 26 24 29 34 33 34 38 31 38 40 41 37 38 31 30 30 25 27 26 27 27 28
26 26 28 29 33 45 40 41 54 33 47 23 25 16 23 23 23 26 29 29 36 35 29 25 28 34 37 32 33 38 42 44 43 46 42 39 33 32 31 29 28 30 30 29 31
26 30 37 35 38 43 36 46 46 62 43 28 23 26 26 32 35 33 38 34 32 38 40 39 32 32 33 31 35 39 43 41 47 47 50 47 40 43 37 34 32 29 30 34 35
31 30 30 33 42 39 43 47 58 61 36 30 27 28 32 37 39 40 45 50 50 32 58 44 40 39 36 37 37 42 44 46 54 60 54 48 43 44 41 39 36 36 36 46 51
41 36 40 41 41 43 40 59 52 49 39 30 29 35 35 36 41 47 45 50 50 50 62 57 43 43 42 40 42 48 49 62 54 63 60 53 49 48 40 40 40 44 48 49 53
39 37 42 49 48 46 59 73 58 48 33 33 35 38 40 41 40 47 54 52 52 54 55 65 49 45 46 45 41 46 59 52 71 89 78 56 49 42 43 41 45 45 45 49 51
34 41 51 53 57 37 77 56 38 40 34 34 40 39 44 51 46 50 50 45 46 54 49 58 59 46 44 41 43 44 46 56 68 75 69 53 59 44 48 47 47 48 52 52 48
40 57 51 57 40 59 68 53 38 40 39 39 45 51 49 50 50 53 52 46 43 48 51 51 55 44 45 51 54 52 55 62 61 74 82 92 57 49 48 48 46 47 55 54 52
42 61 51 56 56 75 56 38 38 42 44 45 47 48 50 54 58 57 57 49 49 46 54 56 64 56 45 48 50 52 54 54 61 63 76 83 60 42 47 48 48 49 56 54 54
65 64 44 42 70 81 50 49 47 42 51 43 48 51 53 58 60 56 55 54 57 49 53 52 65 58 36 43 44 56 57 64 69 76 74 82 55 44 46 41 47 51 55 54 55
62 76 75 76 68 56 52 48 52 44 51 57 52 50 55 60 64 63 61 54 57 57 70 59 65 56 52 39 50 62 63 64 66 85 67 67 53 44 44 48 51 56 58 54 57
75 75 68 74 73 59 54 45 51 47 46 51 54 50 53 63 63 68 63 57 55 61 65 62 74 69 64 60 66 66 66 67 72 68 80 60 57 51 49 57 56 56 57 58 56
72 75 81 81 62 53 66 50 55 54 47 52 60 57 53 57 51 63 61 62 58 59 66 72 74 81 86 77 74 83 68 72 73 70 72 69 71 51 55 62 61 57 58 62 71
78 63 71 90 67 65 63 52 52 54 54 52 59 58 56 57 56 58 62 68 59 62 70 76 86 92 74 80 78 74 52 68 60 60 61 66 46 59 60 63 57 57 64 80 77

GFSSW_925_rhum_021.txt.gz
RH
64 70 91 100 97 83 64 37 37 28 28 27 24 23 22 20 16 20 16 16 18 16 18 17 15 12 8 6 6 5 7 8 8 8 8 6 7 6 8 13 13 12 17 20 32
66 65 63 88 81 62 40 34 31 28 28 25 24 23 23 22 30 12 16 17 16 16 20 12 10 7 6 6 6 6 6 7 6 6 6 6 6 6 10 10 11 15 16 26 34
60 60 57 59 49 44 35 33 31 28 26 24 23 23 22 23 27 11 15 16 15 15 17 10 7 6 7 6 6 6 7 6 6 5 4 5 5 5 7 9 10 12 15 24 30
50 52 54 51 45 41 36 33 30 27 25 24 24 24 21 41 16 13 14 14 15 19 12 9 7 7 7 8 6 7 6 5 5 6 6 6 6 7 6 7 7 8 14 21 26
49 52 54 50 43 36 34 30 27 26 24 25 26 25 28 22 12 13 14 13 14 12 9 7 7 6 6 6 5 7 7 6 6 6 7 8 8 8 7 7 7 10 15 20 24
51 52 51 46 40 35 30 28 26 25 24 25 26 24 32 17 14 12 12 11 11 9 8 7 8 7 6 7 8 9 10 10 10 10 10 11 10 10 8 7 7 10 14 16 18
50 49 45 40 35 31 28 27 25 25 25 26 26 36 23 14 13 11 11 11 11 12 9 10 9 8 9 13 10 10 12 12 12 11 11 10 10 10 9 8 9 9 10 13 15
46 40 37 33 30 28 28 26 25 25 26 29 26 40 17 14 13 11 10 10 12 13 12 12 11 11 11 11 10 11 11 13 12 12 13 12 13 10 10 11 10 10 10 12 14
40 37 33 30 29 30 29 27 26 26 24 26 30 36 14 13 11 10 11 10 12 14 13 12 11 11 13 13 12 10 12 10 14 11 12 12 12 10 11 11 11 10 10 11 13
40 37 35 33 32 30 29 28 26 27 22 34 22 16 11 12 11 12 12 14 12 13 13 12 11 12 9 10 12 10 10 11 11 13 11 11 11 11 12 12 12 11 11 11 12
38 37 36 34 32 30 28 38 24 27 16 15 12 13 11 11 13 11 13 12 11 12 14 12 13 14 12 12 12 10 12 12 11 13 15 13 13 13 14 13 14 13 13 13 14
38 37 35 33 32 31 42 25 28 21 18 13 14 14 14 13 12 12 13 13 13 13 12 11 16 15 14 14 14 14 15 15 15 15 17 15 14 14 14 17 15 16 17 19 21
35 42 42 44 34 40 37 37 41 31 15 16 14 13 14 13 16 16 13 11 10 11 10 15 16 15 17 17 18 17 19 22 21 17 16 17 17 16 16 16 16 17 17 17 19
32 32 42 39 42 40 34 44 47 43 18 15 14 13 13 13 18 15 16 14 13 12 12 16 17 18 18 21 21 21 21 24 23 21 19 17 21 18 17 19 18 19 20 20 20
28 29 33 37 35 26 41 50 51 42 31 18 16 14 12 16 16 17 16 14 14 16 18 20 19 21 22 24 22 23 25 25 25 24 19 18 17 22 16 20 21 22 23 24 24
34 36 34 37 50 48 49 53 48 40 34 20 15 18 18 18 18 17 17 15 17 16 16 20 18 20 24 22 22 23 26 24 26 24 31 23 22 23 21 22 23 25 28 28 28
34 43 46 44 33 56 57 41 25 40 20 21 20 18 19 22 23 20 21 24 23 26 26 21 23 22 23 24 23 22 25 35 41 38 36 25 22 32 26 25 26 28 30 30 30
32 41 44 59 56 49 45 29 41 26 19 16 18 19 23 21 24 24 21 24 24 22 21 25 36 25 24 28 30 27 29 46 44 39 30 26 23 28 25 25 26 26 26 27 29
39 56 50 65 60 55 29 42 31 22 19 19 19 21 24 24 23 26 28 28 29 28 29 29 31 25 27 26 26 29 36 29 45 57 51 22 25 28 26 28 27 27 27 30 29
34 32 38 44 43 48 36 40 27 22 19 17 23 24 25 25 26 26 28 30 30 28 26 29 36 25 25 26 28 29 28 41 36 60 40 19 19 22 34 30 27 26 26 28 28
33 27 59 51 47 28 41 31 26 24 22 22 24 26 25 29 26 30 31 32 28 30 26 24 29 29 23 29 27 29 33 33 28 37 45 38 25 23 24 25 27 25 28 30 30
35 34 56 58 29 31 36 26 33 27 27 27 25 25 28 28 31 34 34 34 33 30 31 32 32 34 22 26 29 28 30 30 41 34 39 52 41 22 22 25 27 27 29 30 32
28 37 51 53 54 54 34 33 27 29 27 28 33 29 30 32 41 34 36 39 32 33 38 34 38 35 26 32 32 32 29 30 34 46 45 67 44 22 22 24 23 26 32 31 31
30 55 36 36 31 27 33 32 36 33 33 29 32 29 32 35 32 40 40 41 41 38 56 46 34 34 37 27 23 28 26 23 29 51 49 43 32 24 22 26 26 27 30 31 33
31 42 39 48 41 30 29 29 32 34 31 28 32 30 33 41 36 39 36 42 40 62 42 38 46 34 32 26 24 26 28 28 30 30 46 40 33 27 27 29 32 32 32 33 34
32 39 38 41 32 32 42 31 28 32 30 32 31 29 28 41 28 36 30 29 30 38 39 38 51 56 48 30 27 34 28 27 28 32 32 32 34 26 28 27 33 34 39 43 40
46 46 36 60 38 39 36 32 29 32 38 26 29 29 42 33 35 37 36 34 33 37 44 49 57 55 65 48 57 79 41 30 29 30 34 43 33 26 32 36 46 47 47 46 52

GFSSW_925_rhum_024.txt.gz
RH
64 63 59 66 92 91 52 33 28 27 27 27 27 24 23 24 19 23 22 16 16 17 16 16 14 13 11 8 6 6 9 12 11 12 9 7 7 6 8 12 11 15 20 28 34
62 58 54 55 69 71 47 33 30 29 28 27 25 24 25 29 35 24 17 15 15 14 17 15 12 11 10 7 6 6 10 8 6 6 6 6 6 6 10 11 12 19 22 30 30
54 51 50 51 55 62 46 38 32 31 29 26 24 24 26 33 38 14 13 15 14 13 18 16 7 7 8 6 6 6 8 6 5 6 5 5 5 6 8 9 12 15 26 28 29
46 48 50 52 53 52 54 38 32 29 27 24 24 25 29 46 22 13 12 13 14 14 19 8 7 8 7 7 6 7 5 5 5 5 5 5 5 6 6 8 8 12 15 26 27
45 48 51 53 52 43 37 32 29 26 24 24 25 30 38 31 14 11 11 11 12 15 12 8 8 6 7 6 6 6 5 5 5 6 7 7 6 7 7 8 8 11 15 23 25
47 49 52 52 48 40 34 29 26 24 23 25 27 34 49 25 11 11 10 10 9 8 7 7 7 6 5 5 7 7 7 7 7 8 8 8 9 9 7 7 7 11 15 19 23
49 51 51 48 42 38 32 27 25 24 24 26 27 44 31 17 10 10 10 10 10 10 9 8 8 7 7 10 8 8 10 10 10 10 9 9 10 10 8 7 7 9 12 15 17
48 48 46 41 37 32 28 26 24 24 25 28 29 51 26 13 12 10 8 8 9 10 11 9 9 10 11 9 8 9 10 14 11 10 11 11 14 8 8 9 9 9 10 10 15
44 42 38 35 31 28 26 26 26 25 26 28 36 40 21 11 10 9 9 9 10 11 12 10 10 9 10 12 12 11 13 13 14 9 11 12 13 9 9 11 11 10 11 11 12
42 40 36 32 30 29 29 27 28 28 25 43 32 24 12 10 10 9 9 12 10 11 11 12 11 12 12 12 18 14 9 10 11 12 9 9 10 10 11 11 12 11 10 12 12
40 39 37 34 32 30 30 34 29 29 23 15 12 13 9 8 9 9 10 11 11 13 16 11 14 15 13 11 10 10 10 10 10 12 13 11 11 12 12 12 14 13 13 16 26
40 39 38 36 33 32 37 32 26 21 19 12 12 12 11 11 11 10 11 13 13 15 12 10 14 14 11 11 12 12 14 14 13 13 14 13 14 13 14 16 15 16 17 25 25
37 39 36 34 33 32 39 34 34 34 16 13 12 11 12 12 13 12 12 11 12 12 9 19 16 13 13 14 16 14 16 22 20 16 14 15 16 16 16 16 18 19 19 20 23
36 39 44 38 39 35 31 34 39 37 20 14 14 11 12 12 15 12 12 14 10 10 10 16 14 15 16 17 19 19 21 22 20 20 21 15 22 18 18 19 20 20 22 22 22
30 31 41 37 57 27 38 40 41 39 41 15 13 12 10 15 14 14 11 11 14 13 14 18 17 19 19 23 20 21 22 22 22 23 21 17 22 21 18 22 23 24 25 26 27
32 33 35 37 53 44 44 48 42 54 44 18 13 15 15 15 16 14 14 13 15 13 15 18 15 19 22 20 19 19 24 22 22 25 43 21 20 31 20 22 25 27 28 29 29
42 37 45 49 44 49 54 40 30 44 15 19 17 16 17 19 18 17 18 19 22 24 25 20 21 21 19 23 21 21 25 48 61 52 52 25 26 32 23 23 25 30 31 31 31
36 37 51 55 52 43 48 36 45 21 17 13 16 17 21 19 20 19 19 23 21 24 21 25 37 23 21 25 27 26 25 60 56 62 47 23 23 34 25 25 26 26 27 28 30
36 55 53 61 60 55 40 49 32 18 16 17 16 20 22 22 22 22 24 26 26 28 30 26 31 22 23 22 22 27 37 24 38 58 60 23 32 26 25 27 26 27 26 29 29
42 40 37 37 51 55 49 49 26 19 14 15 20 18 22 21 23 23 24 26 26 25 22 25 35 21 20 21 26 23 22 41 52 64 47 23 22 39 32 31 28 26 26 28 28
52 34 60 32 43 35 48 39 24 18 18 17 19 20 20 22 22 25 27 28 25 26 22 23 26 27 20 27 23 26 28 30 26 42 54 52 31 22 25 26 28 26 26 30 31
40 40 57 39 34 32 37 24 32 24 24 24 21 20 23 24 26 28 31 35 28 25 29 27 29 49 22 20 22 23 27 28 63 48 57 59 44 22 22 25 26 28 29 30 29
34 45 52 49 49 59 31 26 22 23 21 24 27 24 25 27 37 30 38 34 28 35 44 34 40 52 32 31 29 24 24 26 35 56 59 69 45 21 21 33 26 28 27 29 33
38 55 36 38 36 32 34 32 34 28 27 24 26 26 28 32 28 35 42 39 36 39 50 45 32 34 45 29 23 25 22 22 25 66 56 53 37 26 24 31 30 30 31 31 33
38 41 30 46 41 29 26 26 31 35 27 25 28 26 29 36 33 35 36 42 37 54 39 37 45 35 32 24 23 24 26 25 28 29 44 39 30 26 30 30 31 40 39 40 39
43 37 36 32 31 30 40 28 27 24 28 27 28 26 27 39 31 35 30 30 33 34 36 36 58 61 54 26 26 33 29 30 27 25 26 32 33 24 26 37 41 40 39 41 51
38 39 34 51 36 39 39 29 25 28 34 24 24 29 52 40 38 34 33 30 29 36 40 48 67 68 74 57 62 83 51 28 28 26 30 45 34 25 41 44 45 47 49 56 55